SCOUT A DEB, 2141

Orbit data source: Space-Track

SCOUT A DEB, 2141 is space debris in LEO originally from a launch on Fri, 28 Jan 1966 UTC launched from the Air Force Western Test Range (AFWTR). Debris objects in space refer to the collection of defunct objects orbiting the Earth. Examples of debris include non-operational satellites, rocket bodies, and fragments generated from explosions, collisions, or faulty payload assembly.

Loading next visibility...
Identifier
2141, 1966-005D
Orbit
LEO
Country
Flag of USUS
Related business
Manufacturer
Unknown
Mission
Spacecraft
Bus & Motor
Unknown
Mass
Unknown
Launch date (UTC)
1966-01-28 (61 years ago)
Launch vehicle
Unknown
Launch site
Air Force Western Test Range (AFWTR)
Object type
Payload
Rocket body
Debris
Shape & HBR
Unknown shape, 0.1 m
Radar Cross Section
Medium (>0.1 m² and <1 m²)

Expand to show TLE details & history
Last TLE update: 1 day ago

TLE from 1 day ago
0 SCOUT A DEB
1 02141U 66005D   26236.03162052  .00000163  00000-0  88356-4 0  9997
2 02141  90.2422 260.4446 0115481 207.3384 152.1692 14.05938151 78112
Epoch: 2026-08-24T00:45Z
TLE epoch observation values (Epoch: 2026-08-24T00:45:32.012Z)
Latitude
-0.00009°
Longitude
-83.25794°
Altitude
950.617 km
Speed
7.339 km/s
True Right ascension
17h 21m 46s
True Declination
0° 00' 00"
Sunlit
Object was in daylight at epoch
Visualization orbit readout
Latitude
Unknown
Longitude
Unknown
Altitude
Unknown
Speed
Unknown
Apparent Right ascension
Unknown
Apparent Declination
Unknown
Sunlit
N/A
Visualization observer readout
Local Sidereal Time
19:03:47
Azimuth
Unknown
Elevation
Unknown
Doppler factor
Unknown
Orbital elements
Apogee altitude
953.978 km
Perigee altitude
786.568 km
Semi-major axis
7,248.41 km
Eccentricity
0.01155
Inclination
90.2422°
RAAN
260.4446°
Arg. of periapsis
207.3384°
True anomaly
152.7792°
Mean anomaly
152.1692°
Eccentric anomaly
152.47498°
Mean motion
3.51705 °/min
Orbital period
102.36 mins
BSTAR
0.000088356
Loading maneuver chart data...
Computing Atmospheric mass density...
Loading historical data...
Loading historical data...
Loading historical data...
Loading historical data...
Loading historical data...
Loading historical data...
Loading historical data...

Documentation

Showing up to 5 results
|